| time (UTC) | temp C | wind direction | speed KPH | gust KPH | rain 1hr cm | rain 24hr cm | rain mn cm | humidity % | barometer mb |
| 20260504044527 | 12 | 24 | 0.0 | 0.0 | 0.00 | 0.00 | 0.00 | 92 | 1019.0 |
| 20260504043037 | 12 | 23 | 0.0 | 0.0 | 0.00 | 0.00 | 0.00 | 91 | 1019.0 |
| 20260504041530 | 12 | 23 | 0.0 | 0.0 | 0.00 | 0.00 | 0.00 | 91 | 1019.0 |
| 20260504040026 | 12 | 24 | 0.0 | 0.0 | 0.00 | 0.00 | 0.00 | 91 | 1019.0 |
| 20260504034524 | 12 | 24 | 0.0 | 0.0 | 0.00 | 0.00 | 0.00 | 90 | 1019.0 |
| 20260504033029 | 13 | 24 | 0.0 | 0.0 | 0.00 | 0.00 | 0.00 | 90 | 1019.0 |
| 20260504031524 | 13 | 24 | 0.0 | 0.0 | 0.00 | 0.00 | 0.00 | 87 | 1018.9 |
| 20260504030026 | 13 | 24 | 0.0 | 0.0 | 0.00 | 0.00 | 0.00 | 87 | 1019.0 |
| 20260504024523 | 14 | 23 | 0.0 | 0.0 | 0.00 | 0.00 | 0.00 | 86 | 1018.8 |
| 20260504023026 | 14 | 23 | 0.0 | 0.0 | 0.00 | 0.00 | 0.00 | 84 | 1018.7 |
| 20260504021522 | 15 | 23 | 0.0 | 0.0 | 0.00 | 0.00 | 0.00 | 81 | 1018.7 |
| 20260504020025 | 15 | 23 | 0.0 | 0.0 | 0.00 | 0.00 | 0.00 | 80 | 1018.6 |
| 20260504014529 | 15 | 23 | 0.0 | 0.0 | 0.00 | 0.00 | 0.00 | 80 | 1018.4 |
| 20260504013021 | 15 | 23 | 0.0 | 0.0 | 0.00 | 0.00 | 0.00 | 77 | 1018.3 |
| 20260504011523 | 16 | 23 | 0.0 | 0.0 | 0.00 | 0.00 | 0.00 | 73 | 1018.1 |
| 20260504010019 | 17 | 24 | 0.0 | 0.0 | 0.00 | 0.00 | 0.00 | 70 | 1018.0 |
| 20260504004521 | 17 | 23 | 0.0 | 0.0 | 0.00 | 0.00 | 0.00 | 67 | 1018.0 |
| 20260504003021 | 18 | 23 | 0.0 | 0.0 | 0.00 | 0.00 | 0.00 | 62 | 1017.8 |
| 20260504001518 | 20 | 23 | 0.0 | 0.0 | 0.00 | 0.00 | 0.00 | 60 | 1017.7 |
| 20260504000018 | 21 | 23 | 0.0 | 0.0 | 0.00 | 0.00 | 0.00 | 57 | 1017.7 |
| 20260503234517 | 22 | 103 | 0.0 | 1.6 | 0.00 | 0.00 | 0.00 | 52 | 1017.6 |
| 20260503233015 | 23 | 138 | 0.0 | 1.6 | 0.00 | 0.00 | 0.00 | 49 | 1017.6 |
| 20260503231517 | 24 | 209 | 0.0 | 6.4 | 0.00 | 0.00 | 0.00 | 46 | 1017.6 |
| 20260503230019 | 25 | 104 | 0.0 | 3.2 | 0.00 | 0.00 | 0.00 | 45 | 1017.7 |
| 20260503224516 | 25 | 179 | 0.0 | 3.2 | 0.00 | 0.00 | 0.00 | 46 | 1017.7 |
| 20260503223015 | 25 | 19 | 0.0 | 6.4 | 0.00 | 0.00 | 0.00 | 44 | 1017.7 |
| 20260503221513 | 25 | 140 | 0.0 | 6.4 | 0.00 | 0.00 | 0.00 | 45 | 1017.7 |
| 20260503220122 | 25 | 229 | 0.0 | 6.4 | 0.00 | 0.00 | 0.00 | 45 | 1017.8 |
| 20260503214513 | 26 | 129 | 1.6 | 8.0 | 0.00 | 0.00 | 0.00 | 36 | 1017.9 |
| 20260503213008 | 26 | 9 | 0.0 | 4.8 | 0.00 | 0.00 | 0.00 | 37 | 1018.1 |
| 20260503211507 | 26 | 254 | 0.0 | 11.3 | 0.00 | 0.00 | 0.00 | 37 | 1018.2 |
| 20260503210006 | 25 | 352 | 0.0 | 4.8 | 0.00 | 0.00 | 0.00 | 35 | 1018.4 |
| 20260503204507 | 26 | 298 | 1.6 | 6.4 | 0.00 | 0.00 | 0.00 | 37 | 1018.6 |
| 20260503203003 | 25 | 82 | 1.6 | 11.3 | 0.00 | 0.00 | 0.00 | 38 | 1018.8 |
| 20260503201600 | 25 | 3 | 0.0 | 4.8 | 0.00 | 0.00 | 0.00 | 37 | 1019.0 |
| 20260503194602 | 25 | 221 | 0.0 | 6.4 | 0.00 | 0.00 | 0.00 | 39 | 1019.7 |
| 20260503193056 | 25 | 129 | 1.6 | 9.7 | 0.00 | 0.00 | 0.00 | 34 | 1019.8 |
| 20260503191555 | 25 | 74 | 0.0 | 6.4 | 0.00 | 0.00 | 0.00 | 41 | 1019.9 |
| 20260503190054 | 25 | 217 | 0.0 | 6.4 | 0.00 | 0.00 | 0.00 | 38 | 1020.1 |
| 20260503184603 | 25 | 65 | 0.0 | 6.4 | 0.00 | 0.00 | 0.00 | 39 | 1020.4 |
| 20260503183054 | 24 | 37 | 0.0 | 6.4 | 0.00 | 0.00 | 0.00 | 40 | 1020.5 |
| 20260503181549 | 24 | 249 | 0.0 | 11.3 | 0.00 | 0.00 | 0.00 | 39 | 1020.9 |
| 20260503180100 | 24 | 291 | 1.6 | 6.4 | 0.00 | 0.00 | 0.00 | 36 | 1021.0 |
| 20260503174547 | 24 | 304 | 0.0 | 6.4 | 0.00 | 0.00 | 0.00 | 36 | 1021.3 |
| 20260503173051 | 24 | 254 | 0.0 | 8.0 | 0.00 | 0.00 | 0.00 | 40 | 1021.5 |
| 20260503171544 | 24 | 222 | 1.6 | 8.0 | 0.00 | 0.00 | 0.00 | 40 | 1021.8 |
| 20260503130155 | 15 | 9 | 0.0 | 1.6 | 0.00 | 0.00 | 0.00 | 80 | 1021.2 |
| 20260503081512 | 7 | 214 | 0.0 | 0.0 | 0.00 | 0.23 | 0.00 | 97 | 1019.5 |
| 20260503071611 | 8 | 214 | 0.0 | 0.0 | 0.00 | 0.61 | 0.00 | 97 | 1019.1 |